| time (UTC) | temp F | wind direction | speed MPH | gust MPH | rain 1hr in | rain 24hr in | rain mn in | humidity % | barometer mb |
| 20260510203055 | 57 | 246 | 6.0 | 12.0 | 0.00 | 0.00 | 0.00 | 36 | 1017.3 |
| 20260510201552 | 57 | 221 | 5.0 | 15.0 | 0.00 | 0.00 | 0.00 | 37 | 1017.3 |
| 20260510200114 | 57 | 282 | 7.0 | 13.0 | 0.00 | 0.00 | 0.00 | 36 | 1017.4 |
| 20260510194558 | 57 | 265 | 6.0 | 20.0 | 0.00 | 0.00 | 0.00 | 36 | 1017.5 |
| 20260510193103 | 56 | 236 | 3.0 | 11.0 | 0.00 | 0.00 | 0.00 | 35 | 1017.5 |
| 20260510191600 | 56 | 242 | 4.0 | 14.0 | 0.00 | 0.00 | 0.00 | 36 | 1017.6 |
| 20260510190148 | 56 | 223 | 4.0 | 15.0 | 0.00 | 0.00 | 0.00 | 36 | 1017.5 |
| 20260510184547 | 58 | 297 | 5.0 | 14.0 | 0.00 | 0.00 | 0.00 | 34 | 1017.2 |
| 20260510183053 | 56 | 248 | 8.0 | 16.0 | 0.00 | 0.00 | 0.00 | 35 | 1017.2 |
| 20260510181545 | 55 | 286 | 3.0 | 11.0 | 0.00 | 0.00 | 0.00 | 36 | 1017.1 |
| 20260510180045 | 56 | 236 | 11.0 | 15.0 | 0.00 | 0.00 | 0.00 | 34 | 1017.0 |
| 20260510174545 | 57 | 225 | 7.0 | 16.0 | 0.00 | 0.00 | 0.00 | 34 | 1016.9 |
| 20260510173048 | 56 | 273 | 3.0 | 15.0 | 0.00 | 0.00 | 0.00 | 38 | 1016.9 |
| 20260510171546 | 56 | 290 | 6.0 | 13.0 | 0.00 | 0.00 | 0.00 | 37 | 1017.1 |
| 20260510170037 | 55 | 297 | 4.0 | 15.0 | 0.00 | 0.00 | 0.00 | 38 | 1017.3 |
| 20260510164636 | 55 | 313 | 5.0 | 12.0 | 0.00 | 0.00 | 0.00 | 39 | 1017.2 |
| 20260510163033 | 54 | 280 | 9.0 | 14.0 | 0.00 | 0.00 | 0.00 | 38 | 1017.3 |
| 20260510161530 | 54 | 291 | 6.0 | 12.0 | 0.00 | 0.00 | 0.00 | 41 | 1017.3 |
| 20260510160033 | 53 | 274 | 7.0 | 15.0 | 0.00 | 0.00 | 0.00 | 43 | 1017.2 |
| 20260510154526 | 53 | 277 | 4.0 | 15.0 | 0.00 | 0.00 | 0.00 | 42 | 1017.1 |
| 20260510153033 | 53 | 305 | 6.0 | 15.0 | 0.00 | 0.00 | 0.00 | 45 | 1017.1 |
| 20260510151520 | 52 | 298 | 7.0 | 13.0 | 0.00 | 0.00 | 0.00 | 46 | 1017.0 |
| 20260510150020 | 51 | 253 | 6.0 | 12.0 | 0.00 | 0.00 | 0.00 | 46 | 1016.8 |
| 20260510144526 | 51 | 304 | 6.0 | 14.0 | 0.00 | 0.00 | 0.00 | 45 | 1016.8 |
| 20260510143014 | 51 | 331 | 3.0 | 12.0 | 0.00 | 0.00 | 0.00 | 48 | 1016.6 |
| 20260510141514 | 50 | 314 | 2.0 | 12.0 | 0.00 | 0.00 | 0.00 | 48 | 1016.5 |
| 20260510140010 | 49 | 281 | 3.0 | 11.0 | 0.00 | 0.00 | 0.00 | 51 | 1016.6 |
| 20260510134510 | 49 | 292 | 6.0 | 12.0 | 0.00 | 0.00 | 0.00 | 52 | 1016.6 |
| 20260510133016 | 48 | 274 | 7.0 | 13.0 | 0.00 | 0.00 | 0.00 | 52 | 1016.5 |
| 20260510131505 | 48 | 266 | 2.0 | 9.0 | 0.00 | 0.00 | 0.00 | 56 | 1016.3 |
| 20260510130006 | 47 | 269 | 4.0 | 11.0 | 0.00 | 0.00 | 0.00 | 58 | 1016.3 |
| 20260510124506 | 46 | 249 | 3.0 | 8.0 | 0.00 | 0.00 | 0.00 | 63 | 1016.1 |
| 20260510123121 | 45 | 259 | 4.0 | 8.0 | 0.00 | 0.00 | 0.00 | 63 | 1015.9 |
| 20260510121558 | 44 | 240 | 3.0 | 10.0 | 0.00 | 0.00 | 0.00 | 66 | 1015.6 |
| 20260510120057 | 43 | 243 | 3.0 | 8.0 | 0.00 | 0.00 | 0.00 | 68 | 1015.5 |
| 20260510114556 | 42 | 240 | 4.0 | 8.0 | 0.00 | 0.00 | 0.00 | 70 | 1015.4 |
| 20260510113053 | 41 | 244 | 3.0 | 5.0 | 0.00 | 0.00 | 0.00 | 71 | 1015.2 |
| 20260510111555 | 40 | 246 | 3.0 | 7.0 | 0.00 | 0.00 | 0.00 | 73 | 1014.9 |
| 20260510110053 | 39 | 250 | 3.0 | 7.0 | 0.00 | 0.00 | 0.00 | 72 | 1014.7 |
| 20260510104545 | 38 | 300 | 2.0 | 4.0 | 0.00 | 0.00 | 0.00 | 72 | 1014.4 |
| 20260510103043 | 38 | 301 | 1.0 | 2.0 | 0.00 | 0.00 | 0.00 | 69 | 1014.1 |
| 20260510101539 | 39 | 301 | 1.0 | 2.0 | 0.00 | 0.00 | 0.00 | 69 | 1014.0 |
| 20260510100036 | 39 | 301 | 0.0 | 3.0 | 0.00 | 0.00 | 0.00 | 68 | 1013.8 |
| 20260510094534 | 39 | 302 | 0.0 | 1.0 | 0.00 | 0.00 | 0.00 | 69 | 1013.8 |
| 20260510093031 | 40 | 302 | 0.0 | 2.0 | 0.00 | 0.00 | 0.00 | 70 | 1013.7 |
| 20260510091529 | 40 | 302 | 1.0 | 3.0 | 0.00 | 0.00 | 0.00 | 69 | 1013.5 |
| 20260510090029 | 40 | 302 | 1.0 | 2.0 | 0.00 | 0.00 | 0.00 | 68 | 1013.2 |
| 20260510084523 | 41 | 302 | 1.0 | 2.0 | 0.00 | 0.00 | 0.00 | 68 | 1013.0 |
| 20260510083020 | 41 | 302 | 0.0 | 2.0 | 0.00 | 0.00 | 0.00 | 67 | 1012.7 |
| 20260510081518 | 42 | 302 | 0.0 | 3.0 | 0.00 | 0.00 | 0.00 | 67 | 1012.7 |
| 20260510080020 | 42 | 294 | 0.0 | 4.0 | 0.00 | 0.00 | 0.00 | 66 | 1012.5 |
| 20260510074515 | 43 | 279 | 0.0 | 4.0 | 0.00 | 0.00 | 0.00 | 68 | 1012.3 |
| 20260510073011 | 42 | 311 | 1.0 | 3.0 | 0.00 | 0.00 | 0.00 | 69 | 1012.0 |
| 20260510071510 | 42 | 312 | 1.0 | 4.0 | 0.00 | 0.00 | 0.00 | 70 | 1011.8 |
| 20260510070007 | 42 | 322 | 1.0 | 3.0 | 0.00 | 0.00 | 0.00 | 69 | 1011.7 |
| 20260510064504 | 43 | 322 | 0.0 | 2.0 | 0.00 | 0.00 | 0.00 | 67 | 1011.5 |
| 20260510063102 | 44 | 323 | 1.0 | 6.0 | 0.00 | 0.00 | 0.00 | 64 | 1011.4 |
| 20260510061557 | 45 | 330 | 7.0 | 13.0 | 0.00 | 0.00 | 0.00 | 63 | 1011.2 |
| 20260510060054 | 46 | 336 | 7.0 | 12.0 | 0.00 | 0.00 | 0.00 | 63 | 1011.1 |
| 20260510054550 | 46 | 332 | 5.0 | 10.0 | 0.00 | 0.00 | 0.00 | 61 | 1010.9 |
| 20260510053047 | 46 | 346 | 6.0 | 11.0 | 0.00 | 0.00 | 0.00 | 60 | 1010.7 |
| 20260510051645 | 46 | 336 | 4.0 | 10.0 | 0.00 | 0.00 | 0.00 | 57 | 1010.5 |
| 20260510050043 | 47 | 338 | 4.0 | 12.0 | 0.00 | 0.00 | 0.00 | 54 | 1010.2 |
| 20260510044545 | 48 | 346 | 7.0 | 13.0 | 0.00 | 0.00 | 0.00 | 51 | 1010.1 |
| 20260510043035 | 48 | 355 | 6.0 | 12.0 | 0.00 | 0.00 | 0.00 | 53 | 1009.8 |
| 20260510041529 | 49 | 333 | 4.0 | 11.0 | 0.00 | 0.00 | 0.00 | 57 | 1009.6 |
| 20260510040030 | 50 | 360 | 7.0 | 16.0 | 0.00 | 0.00 | 0.00 | 56 | 1009.2 |
| 20260510034532 | 51 | 329 | 8.0 | 12.0 | 0.00 | 0.00 | 0.00 | 53 | 1008.9 |
| 20260510033021 | 51 | 338 | 7.0 | 13.0 | 0.00 | 0.00 | 0.00 | 55 | 1008.7 |
| 20260510031520 | 50 | 337 | 3.0 | 8.0 | 0.00 | 0.00 | 0.00 | 58 | 1008.3 |
| 20260510030016 | 50 | 22 | 4.0 | 8.0 | 0.00 | 0.00 | 0.00 | 60 | 1008.0 |
| 20260510024515 | 51 | 340 | 2.0 | 5.0 | 0.00 | 0.00 | 0.00 | 58 | 1007.8 |
| 20260510023012 | 51 | 355 | 3.0 | 5.0 | 0.00 | 0.00 | 0.00 | 57 | 1007.5 |
| 20260510021523 | 52 | 327 | 2.0 | 8.0 | 0.00 | 0.00 | 0.00 | 56 | 1007.2 |
| 20260510020008 | 53 | 333 | 4.0 | 11.0 | 0.00 | 0.00 | 0.00 | 56 | 1007.0 |
| 20260510014507 | 54 | 336 | 7.0 | 13.0 | 0.00 | 0.00 | 0.00 | 55 | 1006.6 |
| 20260510013000 | 54 | 312 | 8.0 | 13.0 | 0.00 | 0.00 | 0.00 | 56 | 1006.2 |
| 20260510011558 | 55 | 5 | 7.0 | 14.0 | 0.00 | 0.00 | 0.00 | 56 | 1005.6 |
| 20260510010058 | 56 | 346 | 8.0 | 14.0 | 0.00 | 0.00 | 0.00 | 51 | 1005.3 |
| 20260510004558 | 58 | 328 | 9.0 | 14.0 | 0.00 | 0.00 | 0.00 | 46 | 1005.0 |
| 20260510003100 | 59 | 316 | 4.0 | 12.0 | 0.00 | 0.00 | 0.00 | 46 | 1004.6 |
| 20260510001555 | 59 | 321 | 3.0 | 10.0 | 0.00 | 0.00 | 0.00 | 46 | 1004.3 |
| 20260510000058 | 60 | 281 | 3.0 | 16.0 | 0.00 | 0.00 | 0.00 | 44 | 1003.8 |
| 20260509234555 | 61 | 279 | 4.0 | 10.0 | 0.00 | 0.00 | 0.00 | 43 | 1003.5 |
| 20260509233054 | 63 | 280 | 2.0 | 13.0 | 0.00 | 0.00 | 0.00 | 40 | 1003.0 |
| 20260509231551 | 64 | 305 | 3.0 | 16.0 | 0.00 | 0.00 | 0.00 | 38 | 1002.5 |
| 20260509230051 | 64 | 296 | 10.0 | 22.0 | 0.00 | 0.00 | 0.00 | 37 | 1002.3 |
| 20260509224558 | 64 | 279 | 14.0 | 25.0 | 0.00 | 0.00 | 0.00 | 37 | 1002.1 |
| 20260509223051 | 65 | 281 | 13.0 | 24.0 | 0.00 | 0.00 | 0.00 | 40 | 1001.9 |
| 20260509221602 | 64 | 284 | 9.0 | 18.0 | 0.00 | 0.00 | 0.00 | 39 | 1001.7 |
| 20260509220049 | 66 | 262 | 11.0 | 24.0 | 0.00 | 0.00 | 0.00 | 38 | 1001.4 |
| 20260509214553 | 67 | 271 | 8.0 | 26.0 | 0.00 | 0.00 | 0.00 | 38 | 1001.1 |
| 20260509213047 | 65 | 241 | 6.0 | 21.0 | 0.00 | 0.00 | 0.00 | 39 | 1000.9 |
| 20260509211547 | 65 | 299 | 9.0 | 20.0 | 0.00 | 0.00 | 0.00 | 39 | 1000.8 |
| 20260509210052 | 66 | 266 | 9.0 | 24.0 | 0.00 | 0.00 | 0.00 | 39 | 1000.7 |
| 20260509204547 | 67 | 229 | 11.0 | 24.0 | 0.00 | 0.00 | 0.00 | 40 | 1000.5 |